timestamp,surface_pressure_avg,surface_temp_avg,battery_voltage,lat,long
2018-12-07 00:00:00+00:00,371.8462,3.07,12.89,47.84626,-54.09684
2018-12-07 00:10:00+00:00,375.4812,3.1,12.81,47.84626,-54.09684
2018-12-07 00:20:00+00:00,366.0797,3.1,12.97,47.84626,-54.09684
2018-12-07 00:30:00+00:00,362.7629,3.1,12.97,47.84626,-54.09684
2018-12-07 00:40:00+00:00,364.5163,3.1,12.97,47.84626,-54.09684
2018-12-07 00:50:00+00:00,365.1629,3.1,12.97,47.84626,-54.09684
2018-12-07 01:00:00+00:00,364.2429,3.1,12.89,47.84626,-54.09684
2018-12-07 01:10:00+00:00,371.6129,3.1,12.81,47.84626,-54.09684
2018-12-07 01:20:00+00:00,371.7814,3.1,12.97,47.84626,-54.09684
2018-12-07 01:30:00+00:00,348.6246,2.9,12.97,47.84626,-54.09684
2018-12-07 01:40:00+00:00,334.6429,2.88,12.97,47.84626,-54.09684
2018-12-07 01:50:00+00:00,337.1929,2.89,12.97,47.84626,-54.09684
2018-12-07 02:00:00+00:00,324.568,2.88,12.89,47.84626,-54.09684
2018-12-07 02:10:00+00:00,299.8047,2.9,12.81,47.84626,-54.09684
2018-12-07 02:20:00+00:00,294.5647,2.9,12.97,47.84626,-54.09684
2018-12-07 02:30:00+00:00,299.3464,2.9,12.97,47.84626,-54.09684
2018-12-07 02:40:00+00:00,284.988,2.96,12.97,47.84626,-54.09684
2018-12-07 02:50:00+00:00,263.948,2.34,12.97,47.84626,-54.09684
2018-12-07 03:00:00+00:00,260.8381,2.9,12.89,47.84626,-54.09684
2018-12-07 03:10:00+00:00,251.6715,2.9,12.81,47.84626,-54.09684
2018-12-07 03:20:00+00:00,233.0915,2.74,12.89,47.84626,-54.09684
2018-12-07 03:30:00+00:00,222.5398,2.8,12.97,47.84626,-54.09684
2018-12-07 03:40:00+00:00,220.3997,2.76,12.97,47.84626,-54.09684
2018-12-07 03:50:00+00:00,209.2431,2.8,12.97,47.84626,-54.09684
2018-12-07 04:00:00+00:00,201.6831,2.8,12.89,47.84626,-54.09684
2018-12-07 04:10:00+00:00,208.2265,2.82,12.81,47.84626,-54.09684
2018-12-07 04:20:00+00:00,207.5398,3.2,12.89,47.84626,-54.09684
2018-12-07 04:30:00+00:00,195.0264,2.82,12.97,47.84626,-54.09684
2018-12-07 04:40:00+00:00,190.7215,2.58,12.97,47.84626,-54.09684
2018-12-07 04:50:00+00:00,198.8831,2.6,12.97,47.84626,-54.09684
2018-12-07 05:00:00+00:00,197.2065,2.7,12.89,47.84626,-54.09684
2018-12-07 05:10:00+00:00,184.3298,2.6,12.81,47.84626,-54.09684
2018-12-07 05:20:00+00:00,187.4164,3.28,12.89,47.84626,-54.09684
2018-12-07 05:30:00+00:00,199.8181,3.0,12.89,47.84626,-54.09684
2018-12-07 05:40:00+00:00,192.6698,2.96,12.97,47.84626,-54.09684
2018-12-07 05:50:00+00:00,185.2865,3.23,12.97,47.84626,-54.09684
2018-12-07 06:00:00+00:00,197.3131,3.55,12.89,47.84626,-54.09684
2018-12-07 06:10:00+00:00,203.9364,3.36,12.81,47.84626,-54.09684
2018-12-07 06:20:00+00:00,200.9381,3.38,12.89,47.84626,-54.09684
2018-12-07 06:30:00+00:00,206.0165,3.2,12.89,47.84626,-54.09684
2018-12-07 06:40:00+00:00,218.3647,3.5,12.97,47.84626,-54.09684
2018-12-07 06:50:00+00:00,222.5597,3.57,12.97,47.84626,-54.09684
2018-12-07 07:00:00+00:00,223.9048,3.4,12.89,47.84626,-54.09684
2018-12-07 07:10:00+00:00,229.9031,3.55,12.81,47.84626,-54.09684
2018-12-07 07:20:00+00:00,238.0264,3.7,12.89,47.84626,-54.09684
2018-12-07 07:30:00+00:00,237.5597,3.7,12.89,47.84626,-54.09684
2018-12-07 07:40:00+00:00,234.4381,3.6,12.97,47.84626,-54.09684
2018-12-07 07:50:00+00:00,233.5298,3.5,12.97,47.84626,-54.09684
2018-12-07 08:00:00+00:00,237.6914,3.5,12.89,47.84626,-54.09684
2018-12-07 08:10:00+00:00,237.2982,3.59,12.81,47.84626,-54.09684
2018-12-07 08:20:00+00:00,240.3064,3.6,12.89,47.84626,-54.09684
2018-12-07 08:30:00+00:00,243.6664,3.68,12.89,47.84626,-54.09684
2018-12-07 08:40:00+00:00,249.2897,3.6,12.89,47.84626,-54.09684
2018-12-07 08:50:00+00:00,252.2747,3.69,12.97,47.84626,-54.09684
2018-12-07 09:00:00+00:00,261.8697,3.7,12.81,47.84626,-54.09684
2018-12-07 09:10:00+00:00,273.7463,3.7,12.81,47.84626,-54.09684
2018-12-07 09:20:00+00:00,285.2531,3.7,12.89,47.84626,-54.09684
2018-12-07 09:30:00+00:00,291.9263,3.7,12.89,47.84626,-54.09684
2018-12-07 09:40:00+00:00,299.3846,3.72,12.89,47.84626,-54.09684
2018-12-07 09:50:00+00:00,303.0981,3.77,12.89,47.84626,-54.09684
2018-12-07 10:00:00+00:00,310.7731,3.79,12.81,47.84626,-54.09684
2018-12-07 10:10:00+00:00,321.1514,3.8,12.81,47.84626,-54.09684
2018-12-07 10:20:00+00:00,334.0063,3.8,12.89,47.84626,-54.09684
2018-12-07 10:30:00+00:00,343.9746,3.81,12.89,47.84626,-54.09684
2018-12-07 10:40:00+00:00,351.233,3.83,12.89,47.84626,-54.09684
2018-12-07 10:50:00+00:00,358.8729,3.8,12.89,47.84626,-54.09684
2018-12-07 11:00:00+00:00,369.0246,3.8,12.81,47.84626,-54.09684
2018-12-07 11:10:00+00:00,375.7429,3.8,12.81,47.84626,-54.09684
2018-12-07 11:20:00+00:00,376.2712,3.8,12.89,47.84626,-54.09684
2018-12-07 11:30:00+00:00,375.3579,3.8,12.89,47.84626,-54.09684
2018-12-07 11:40:00+00:00,373.2312,3.76,12.89,47.84626,-54.09684
2018-12-07 11:50:00+00:00,373.7062,3.72,12.89,47.84626,-54.09684
2018-12-07 12:00:00+00:00,374.7461,3.74,12.81,47.84626,-54.09684
2018-12-07 12:10:00+00:00,375.0512,3.77,12.81,47.84626,-54.09684
2018-12-07 12:20:00+00:00,368.8879,3.79,12.89,47.84626,-54.09684
2018-12-07 12:30:00+00:00,375.2096,3.8,12.89,47.84626,-54.09684
2018-12-07 12:40:00+00:00,378.1329,3.8,12.97,47.84626,-54.09684
2018-12-07 12:50:00+00:00,366.3879,3.8,13.05,47.84626,-54.09684
2018-12-07 13:00:00+00:00,354.8863,3.8,12.97,47.84626,-54.09684
2018-12-07 13:10:00+00:00,350.3962,3.8,12.97,47.84626,-54.09684
2018-12-07 13:20:00+00:00,348.2646,3.8,13.13,47.84626,-54.09684
2018-12-07 13:30:00+00:00,343.7496,3.89,13.21,47.84626,-54.09684
2018-12-07 13:40:00+00:00,337.3363,3.9,13.21,47.84626,-54.09684
2018-12-07 13:50:00+00:00,332.048,3.9,13.37,47.84626,-54.09684
2018-12-07 14:00:00+00:00,323.4863,3.9,13.37,47.84626,-54.09684
2018-12-07 14:10:00+00:00,312.4413,3.94,13.44,47.84626,-54.09684
2018-12-07 14:20:00+00:00,309.6297,3.96,13.84,47.84626,-54.09684
2018-12-07 14:30:00+00:00,306.4981,3.94,14.72,47.84626,-54.09684
2018-12-07 14:40:00+00:00,292.693,3.9,16.23,47.84626,-54.09684
2018-12-07 14:50:00+00:00,274.6931,3.8,16.23,47.84626,-54.09684
2018-12-07 15:00:00+00:00,267.4698,3.79,16.39,47.84626,-54.09684
2018-12-07 15:10:00+00:00,263.4614,3.8,16.47,47.84626,-54.09684
2018-12-07 15:20:00+00:00,250.6531,3.81,14.48,47.84626,-54.09684
2018-12-07 15:30:00+00:00,239.1498,3.85,14.32,47.84626,-54.09684
2018-12-07 15:40:00+00:00,239.3615,3.88,14.32,47.84626,-54.09684
2018-12-07 15:50:00+00:00,235.7131,3.9,14.32,47.84626,-54.09684
2018-12-07 16:00:00+00:00,223.0064,3.9,14.96,47.84626,-54.09684
2018-12-07 16:10:00+00:00,215.7414,3.9,15.27,47.84626,-54.09684
2018-12-07 16:20:00+00:00,216.2731,3.9,14.96,47.84626,-54.09684
2018-12-07 16:30:00+00:00,209.9798,3.9,15.6,47.84626,-54.09684
2018-12-07 16:40:00+00:00,205.5298,3.9,14.96,47.84626,-54.09684
2018-12-07 16:50:00+00:00,212.3531,3.9,14.64,47.84626,-54.09684
2018-12-07 17:00:00+00:00,215.8748,3.9,14.96,47.84626,-54.09684
2018-12-07 17:10:00+00:00,211.5164,3.9,14.96,47.84626,-54.09684
2018-12-07 17:20:00+00:00,212.6648,3.93,14.56,47.84626,-54.09684
2018-12-07 17:30:00+00:00,219.7664,3.96,14.4,47.84626,-54.09684
2018-12-07 17:40:00+00:00,219.7598,3.99,14.8,47.84626,-54.09684
2018-12-07 17:50:00+00:00,218.3365,4.0,14.88,47.84626,-54.09684
2018-12-07 18:00:00+00:00,221.5114,4.0,14.72,47.84626,-54.09684
2018-12-07 18:10:00+00:00,222.2615,4.0,14.64,47.84626,-54.09684
2018-12-07 18:20:00+00:00,221.7515,4.0,14.8,47.84626,-54.09684
2018-12-07 18:30:00+00:00,228.8064,4.0,14.72,47.84626,-54.09684
2018-12-07 18:40:00+00:00,234.6964,4.03,14.72,47.84626,-54.09684
2018-12-07 18:50:00+00:00,232.9514,4.03,14.56,47.84626,-54.09684
2018-12-07 19:00:00+00:00,234.4348,4.03,14.32,47.84626,-54.09684
2018-12-07 19:10:00+00:00,244.9214,4.0,14.0,47.84626,-54.09684
2018-12-07 19:20:00+00:00,250.5114,4.0,14.0,47.84626,-54.09684
2018-12-07 19:30:00+00:00,250.9781,4.0,13.84,47.84626,-54.09684
2018-12-07 19:40:00+00:00,255.3747,4.0,13.84,47.84626,-54.09684
2018-12-07 19:50:00+00:00,263.5448,3.99,13.68,47.84626,-54.09684
2018-12-07 20:00:00+00:00,265.2864,3.95,13.6,47.84626,-54.09684
2018-12-07 20:10:00+00:00,260.2864,3.9,13.37,47.84626,-54.09684
2018-12-07 20:20:00+00:00,261.4498,3.9,13.37,47.84626,-54.09684
2018-12-07 20:30:00+00:00,267.2181,3.9,13.37,47.84626,-54.09684
2018-12-07 20:40:00+00:00,269.2897,3.9,13.29,47.84626,-54.09684
2018-12-07 20:50:00+00:00,268.9647,3.9,13.29,47.84626,-54.09684
2018-12-07 21:00:00+00:00,274.7997,3.9,13.21,47.84626,-54.09684
2018-12-07 21:10:00+00:00,285.2697,3.88,13.13,47.84626,-54.09684
2018-12-07 21:20:00+00:00,290.2764,3.8,13.21,47.84626,-54.09684
2018-12-07 21:30:00+00:00,294.0696,3.8,13.13,47.84626,-54.09684
2018-12-07 21:40:00+00:00,305.3929,3.75,13.21,47.84626,-54.09684
2018-12-07 21:50:00+00:00,320.5547,3.7,13.21,47.84626,-54.09684
2018-12-07 22:00:00+00:00,325.8664,3.66,13.13,47.84626,-54.09684
2018-12-07 22:10:00+00:00,333.2963,3.6,13.05,47.84626,-54.09684
2018-12-07 22:20:00+00:00,346.768,3.63,13.13,47.84626,-54.09684
2018-12-07 22:30:00+00:00,355.8663,3.6,13.13,47.84626,-54.09684
2018-12-07 22:40:00+00:00,356.868,3.6,13.13,47.84626,-54.09684
2018-12-07 22:50:00+00:00,363.293,3.61,13.13,47.84626,-54.09684
2018-12-07 23:00:00+00:00,372.7513,3.69,13.05,47.84626,-54.09684
2018-12-07 23:10:00+00:00,373.2496,3.79,12.97,47.84626,-54.09684
2018-12-07 23:20:00+00:00,371.673,3.8,13.05,47.84626,-54.09684
2018-12-07 23:30:00+00:00,377.6763,3.83,13.05,47.84626,-54.09684
2018-12-07 23:40:00+00:00,379.7497,3.8,13.05,47.84626,-54.09684
2018-12-07 23:50:00+00:00,374.8279,3.8,13.13,47.84626,-54.09684
